Emporia, VA

1:35 PM EDT on October 18, 2017 (GMT -0400)
Emporia-Greensville Regional

Weather History for KEMV - December, 2012

Change the Weather History Date:

Monday, December 3, 2012

  Actual Average Record
Temperature  
Mean Temperature 56 °F -  
Max Temperature 68 °F 57 °F 77 °F (1991)
Min Temperature 44 °F 33 °F 18 °F (1989)
Degree Days  
Heating Degree Days 9    
Growing Degree Days 6 (Base 50)    
Moisture  
Dew Point 52 °F    
Average Humidity 89    
Maximum Humidity 100    
Minimum Humidity 60    
Precipitation  
Precipitation 0.00 in - - ()
Sea Level Pressure  
Sea Level Pressure 30.26 in    
Wind  
Wind Speed 2 mph (SSW)    
Max Wind Speed 5 mph    
Max Gust Speed -    
Visibility 8 miles    
Events Fog , Rain    
Averages and records for this station are not official NWS values.
T = Trace of Precipitation, MM = Missing Value Source: NWS Daily Summary

Daily Weather History Graph

Daily Weather History Graph

Search for Another Location

Airport or City:

Trip Planner

Search our weather history database for the weather conditions in past years. The results will help you decide how hot, cold, wet, or windy it might be!

Date:

Astronomy

Dec. 03, 2012 Rise Set
Actual Time 7:05 AM EST 4:53 PM EST
Civil Twilight 6:37 AM EST 5:22 PM EST
Nautical Twilight 6:05 AM EST 5:54 PM EST
Astronomical Twilight 5:34 AM EST 6:25 PM EST
Moon 9:34 PM EST (12/3) 10:31 AM EST (12/3)
Length of Visible Light 10h 44m
Length of Day
9h 47m
Waning Gibbous, 78% of the Moon is Illuminated
Dec 3
Waning Gibbous
Dec 6
Last Quarter
Dec 13
New
Dec 20
First Quarter
Dec 28
Full

Hourly Weather History & Observations

Time (EST) Temp. Dew Point Humidity Pressure Visibility Wind Dir Wind Speed Gust Speed Precip Events Conditions
12:15 AM 53.6 °F 50.0 °F 88% 30.25 in 10.0 mi SSE 3.5 mph - N/A Rain Light Rain
12:35 AM 53.6 °F 51.8 °F 94% 30.25 in 10.0 mi SE 3.5 mph - N/A   Overcast
12:55 AM 53.6 °F 51.8 °F 94% 30.25 in 10.0 mi Calm Calm - N/A   Overcast
1:35 AM 55.4 °F 51.8 °F 88% 30.25 in 10.0 mi South 4.6 mph - N/A   Overcast
1:55 AM 55.4 °F 51.8 °F 88% 30.25 in - South 4.6 mph - N/A   Unknown
2:15 AM 55.4 °F 53.6 °F 94% 30.25 in 10.0 mi South 3.5 mph - N/A   Overcast
2:35 AM 55.4 °F 53.6 °F 94% 30.25 in 10.0 mi Calm Calm - N/A   Overcast
2:55 AM 55.4 °F 53.6 °F 94% 30.25 in 10.0 mi South 4.6 mph - N/A Rain Light Rain
3:15 AM 55.4 °F 53.6 °F 94% 30.25 in 10.0 mi Calm Calm - N/A   Overcast
3:35 AM 55.4 °F 53.6 °F 94% 30.25 in 10.0 mi Calm Calm - N/A   Overcast
3:55 AM 55.4 °F 53.6 °F 94% 30.24 in 10.0 mi South 3.5 mph - N/A   Overcast
4:15 AM 55.4 °F 53.6 °F 94% 30.24 in 10.0 mi Calm Calm - N/A   Overcast
4:35 AM 55.4 °F 53.6 °F 94% 30.23 in 10.0 mi Calm Calm - N/A   Overcast
4:55 AM 55.4 °F 53.6 °F 94% 30.23 in 10.0 mi South 3.5 mph - N/A   Overcast
5:15 AM 55.4 °F 53.6 °F 94% 30.24 in 10.0 mi Calm Calm - N/A   Overcast
5:35 AM 55.4 °F 53.6 °F 94% 30.24 in 10.0 mi South 3.5 mph - N/A   Overcast
5:55 AM 55.4 °F 53.6 °F 94% 30.25 in 10.0 mi Calm Calm - N/A   Scattered Clouds
6:15 AM 53.6 °F 53.6 °F 100% 30.25 in - Calm Calm - N/A   Unknown
6:35 AM 53.6 °F 51.8 °F 94% 30.25 in 10.0 mi Calm Calm - N/A   Clear
6:55 AM 51.8 °F 51.8 °F 100% 30.25 in 3.0 mi Calm Calm - N/A   Scattered Clouds
7:15 AM 48.2 °F 48.2 °F 100% 30.26 in 0.5 mi Calm Calm - N/A Fog Fog
7:35 AM 50.0 °F 50.0 °F 100% 30.26 in 5.0 mi Calm Calm - N/A   Overcast
7:55 AM 51.8 °F 51.8 °F 100% 30.27 in 5.0 mi Calm Calm - N/A   Scattered Clouds
8:15 AM 51.8 °F 51.8 °F 100% 30.27 in 7.0 mi Calm Calm - N/A   Scattered Clouds
8:35 AM 51.8 °F 51.8 °F 100% 30.28 in - Calm Calm - N/A   Unknown
8:55 AM 55.4 °F 55.4 °F 100% 30.28 in 10.0 mi Calm Calm - N/A   Clear
9:15 AM 59.0 °F 53.6 °F 82% 30.28 in - WSW 4.6 mph - N/A   Scattered Clouds
9:35 AM 59.0 °F 53.6 °F 82% 30.29 in 10.0 mi Calm Calm - N/A   Mostly Cloudy
10:15 AM 62.6 °F 53.6 °F 72% 30.29 in 10.0 mi SW 3.5 mph - N/A   Overcast
10:35 AM 62.6 °F 53.6 °F 72% 30.29 in 10.0 mi WSW 4.6 mph - N/A   Overcast
10:55 AM 62.6 °F 53.6 °F 72% 30.29 in 10.0 mi WSW 3.5 mph - N/A   Overcast
11:15 AM 62.6 °F 53.6 °F 72% 30.28 in 10.0 mi WSW 3.5 mph - N/A   Overcast
11:35 AM 62.6 °F 53.6 °F 72% 30.28 in 10.0 mi SW 4.6 mph - N/A   Overcast
11:55 AM 62.6 °F 53.6 °F 72% 30.27 in 10.0 mi SW 3.5 mph - N/A   Mostly Cloudy
12:15 PM 64.4 °F 53.6 °F 68% 30.26 in 10.0 mi SW 3.5 mph - N/A   Overcast
12:35 PM 64.4 °F 53.6 °F 68% 30.25 in 10.0 mi WSW 3.5 mph - N/A   Overcast
12:55 PM 66.2 °F 53.6 °F 64% 30.25 in 10.0 mi Calm Calm - N/A   Overcast
1:15 PM 66.2 °F 53.6 °F 64% 30.25 in 10.0 mi Calm Calm - N/A   Overcast
2:15 PM 68.0 °F 53.6 °F 60% 30.23 in 10.0 mi Calm Calm - N/A   Mostly Cloudy
2:35 PM 68.0 °F 53.6 °F 60% 30.23 in 10.0 mi Calm Calm - N/A   Mostly Cloudy
2:55 PM 68.0 °F 53.6 °F 60% 30.23 in 10.0 mi Calm Calm - N/A   Mostly Cloudy
3:15 PM 66.2 °F 55.4 °F 68% 30.23 in 10.0 mi Calm Calm - N/A   Scattered Clouds
3:35 PM 66.2 °F 55.4 °F 68% 30.23 in 10.0 mi Calm Calm - N/A   Mostly Cloudy
3:55 PM 64.4 °F 55.4 °F 73% 30.24 in 10.0 mi Calm Calm - N/A   Mostly Cloudy
4:15 PM 60.8 °F 55.4 °F 82% 30.24 in 10.0 mi Calm Calm - N/A   Clear
4:35 PM 59.0 °F 55.4 °F 88% 30.25 in 10.0 mi Calm Calm - N/A   Clear
4:55 PM 55.4 °F 53.6 °F 94% 30.25 in 10.0 mi Calm Calm - N/A   Clear
5:15 PM 53.6 °F 53.6 °F 100% 30.25 in 10.0 mi Calm Calm - N/A   Clear
5:35 PM 53.6 °F 51.8 °F 94% 30.25 in 10.0 mi Calm Calm - N/A   Scattered Clouds
5:55 PM 51.8 °F 51.8 °F 100% 30.26 in 10.0 mi Calm Calm - N/A   Clear
6:15 PM 51.8 °F 51.8 °F 100% 30.26 in - Calm Calm - N/A   Unknown
6:35 PM 50.0 °F 48.2 °F 94% 30.26 in 10.0 mi Calm Calm - N/A   Clear
6:55 PM 50.0 °F 50.0 °F 100% 30.27 in 2.0 mi Calm Calm - N/A   Clear
7:15 PM 50.0 °F 50.0 °F 100% 30.27 in 7.0 mi Calm Calm - N/A   Clear
7:35 PM 48.2 °F 48.2 °F 100% 30.27 in 5.0 mi Calm Calm - N/A   Clear
7:55 PM 46.4 °F 46.4 °F 100% 30.27 in 7.0 mi Calm Calm - N/A   Clear
8:15 PM 50.0 °F 50.0 °F 100% 30.27 in 1.2 mi Calm Calm - N/A   Mist
8:35 PM 48.2 °F 48.2 °F 100% 30.27 in 5.0 mi Calm Calm - N/A   Clear
8:55 PM 46.4 °F 46.4 °F 100% 30.27 in 5.0 mi Calm Calm - N/A   Clear
9:15 PM 46.4 °F 46.4 °F 100% 30.28 in 1.0 mi Calm Calm - N/A   Mist
9:35 PM 46.4 °F 46.4 °F 100% 30.28 in 1.0 mi Calm Calm - N/A   Mist
9:55 PM 44.6 °F 44.6 °F 100% 30.28 in 0.2 mi Calm Calm - N/A Fog Fog
10:15 PM 44.6 °F 44.6 °F 100% 30.28 in 3.0 mi Calm Calm - N/A   Clear
10:35 PM 44.6 °F 44.6 °F 100% 30.28 in 7.0 mi Calm Calm - N/A   Clear
10:55 PM 44.6 °F 44.6 °F 100% 30.28 in 0.5 mi Calm Calm - N/A Fog Fog
11:15 PM 44.6 °F 44.6 °F 100% 30.28 in 0.8 mi Calm Calm - N/A   Mist
11:35 PM 44.6 °F 44.6 °F 100% 30.28 in 4.0 mi Calm Calm - N/A   Clear
11:55 PM 44.6 °F 44.6 °F 100% 30.28 in 1.8 mi Calm Calm - N/A   Mist